PROFILE

 METAR AND TAF INFORMATION
ADDS - METARS form results

(1337 UTC 18 October 2018)
http://aviationweather.gov/metar/data/
 
SPCL 181300Z 00000KT 9999 SCT025 BKN080 27/24 Q1012 RMK BIRD HAZARD RWY 02/20 PP000
SPCL 181100Z 1812/1912 00000KT 9999 SCT020 TX33/1820Z TN23/1911Z BECMG 1812/1815 32004KT 9999 NSC TEMPO 1818/1821 21008KT FEW020TCU SCT080 BECMG 1821/1901 00000KT CAVOK 

 AIRPORT MAP

 RUNWAY INFORMATION
Runway 02 Runway length 9186 ft Runway width 148 ft
Runway elevation 513 ft Runway displaced threshold 0 ft Runway heading 20
Runway 20 Runway length 9186 ft Runway width 148 ft
Runway elevation 513 ft Runway displaced threshold 0 ft Runway heading 200

 AIRPORT FREQUENCIES
Type APP Name PUCALLPA A Frequency 118.1 MHZ
Type TWR Name PUCALLPA T Frequency 126.9 MHZ

 AIRPORT NEAR NAVIGATION AIDS
Type VOR-DME Name Pucallpa Frequency 116700 KHZ